sat.trackr.live / text

‹ back to catalog

STARLINK-35535

NORAD 66342 · 2025-253Z

PAYLOAD ACTIVE UNKNOWN

§ Identity

Operator
Country
US
Launch date
2025-11-06
Launch site
AFETR
Launch vehicle
Mass (kg)
RCS (m²)

Purposes: comms

External: N2YO · Heavens-Above · Gunter

§ Orbital elements

Epoch: 2026-05-24T23:55:21.163008Z

Period
94.26 min
Inclination
42.9982°
Eccentricity
0.0000669
Mean motion
15.27608805 rev/d
Perigee alt
482.5 km
Apogee alt
483.4 km
Semi-major
6,861.1 km
B*
4.8188e-4
RAAN
141.6510°
Arg perigee
279.7565°
Mean anomaly
80.3211°
Rev number
3,191

§ Raw data

STARLINK-355351 66342U 25253Z   26144.99677272  .00013033  00000+0  48188-3 0  99952 66342  42.9982 141.6510 0000669 279.7565  80.3211 15.27608805 31918

JSON: /api/v1/satellites/66342 · /tle

For live sub-satellite position, see the globe view (requires WebGL).

§ Visibility from observer

Set your observer location to see the next 7 days of passes ≥ 10°. The values pass through the URL so the page stays shareable.

No JS? Fill the form by hand. The geolocation button needs JavaScript.